Location: Bobstadt
(49.6636°N, 8.4475°E)
Time: 11:20:02
(UTC+00:00)

Daily predictions for brighter satellites

Satellite Brightness Start Highest point End
(mag) Time Altitude Azimuth Time Altitude Azimuth Time Altitude Azimuth
Cosmos 2360 Rocket 2.2 18:38:47 10° SSW 18:44:20 62° ESE 18:49:54 10° NE
COSMO-SKYMED 1 3.9 18:42:37 10° N 18:46:32 44° WNW 18:50:26 10° SW
Okean-O 4.4 18:44:17 10° E 18:46:54 16° ENE 18:49:32 10° NNE
BlueWalker 3 4.0 18:45:26 10° W 18:48:05 19° SW 18:50:43 10° S
Cosmos 2184 Rocket 4.1 18:45:57 10° S 18:52:13 63° E 18:58:30 10° NNE
Cosmos 2322 Rocket 2.2 18:46:38 10° SSW 18:52:14 76° ESE 18:57:51 10° NNE
Cosmos 1666 Rocket 3.5 18:50:17 10° S 18:54:34 86° E 18:58:53 10° N
Cosmos 1633 Rocket 3.0 18:51:17 10° S 18:55:39 74° E 19:00:01 10° NNE
Cosmos 1340 Rocket 2.6 18:52:39 10° S 18:56:18 89° W 18:59:58 10° NNE
ADEOS 4.2 18:53:03 10° SE 18:57:50 39° ENE 19:02:39 10° N
Feng Yun 1-1 Rocket 4.4 18:53:45 10° SE 18:59:12 55° ENE 19:04:33 10° N
BREEZE-M DEB (TANK) 2.8 18:57:28 10° SW 18:59:29 28° SSE 19:02:06 10° E
SL-16 R/B 2.9 18:54:37 10° SW 19:00:13 61° WNW 19:05:51 10° NNE
Terra 2.4 18:56:25 10° SE 19:00:44 38° ENE 19:05:04 10° N
ATLAS 5 CENTAUR R/B 3.5 18:59:27 10° WNW 19:01:41 18° NNW 19:04:07 10° NNE
CSL-04 Debris 4.1 18:57:58 10° SSE 19:03:19 79° ENE 19:08:42 10° NNW
Meteor 1-22 Rocket 4.4 18:59:05 10° SSW 19:04:43 82° WNW 19:10:38 10° N
Cosmos 1898 Rocket 3.5 19:00:15 10° S 19:05:25 62° ESE 19:10:34 10° NNE
CZ-4 R/B 1.2 19:01:47 10° SSE 19:05:34 68° ENE 19:09:18 10° N
Resurs 01 Rocket 3.8 19:03:55 10° SSW 19:07:42 28° W 19:11:31 10° NW
SL-08 R/B 4.3 19:05:14 10° NE 19:09:22 27° E 19:13:31 10° SSE
Okean O Rocket 2.8 19:06:43 12° ESE 19:09:54 25° ENE 19:13:27 10° N
Meteor 1-24 Rocket 4.0 19:08:23 10° NNW 19:13:47 69° W 19:19:20 10° S
Cosmos 2333 4.1 19:09:20 10° SSW 19:14:55 83° ESE 19:20:33 10° NNE
Cosmos 372 Rocket 4.1 19:11:03 10° SSW 19:16:16 84° WNW 19:21:32 10° NNE
Cosmos 1680 Rocket 3.7 19:12:44 10° NNW 19:17:53 55° ENE 19:22:22 13° SE
Cosmos 2219 Rocket 2.1 19:15:14 10° SSW 19:20:46 72° ESE 19:26:22 10° NNE
SPOT 5 3.3 19:16:16 10° S 19:20:59 62° WSW 19:25:30 10° NNW
CZ-4B R/B 4.1 19:19:45 10° S 19:23:17 61° WSW 19:26:59 10° NNW
Cosmos 2074 Rocket 4.2 19:17:43 10° SSW 19:23:56 78° W 19:30:15 10° N
Meteor 1-31 Rocket 3.1 19:22:29 10° S 19:25:56 58° WSW 19:29:27 10° NNW
Cosmos 1937 Rocket 3.5 19:21:42 10° SSW 19:26:57 70° ESE 19:32:14 10° NNE
SL-24 R/B - RUBIN 2 3.6 19:27:42 10° NW 19:32:06 72° NE 19:35:18 19° SE
Cosmos 923 Rocket 4.1 19:28:33 10° NNW 19:33:54 86° WSW 19:38:51 12° SSE
USA 186 2.6 19:34:28 18° NE 19:34:28 18° NE 19:35:44 10° NNE
Cosmos 2369 Rocket 4.4 19:32:13 10° N 19:34:18 12° NNE 19:36:23 10° NE
USA 234 3.3 19:27:49 10° ENE 19:34:23 84° NNW 19:40:57 10° WSW
Cosmos 2112 Rocket 4.1 19:30:16 10° NNW 19:35:29 64° ENE 19:39:16 18° SE
SL-8 Rocket 4.3 19:30:23 10° SSE 19:36:14 45° E 19:42:10 10° NNE
NOSS 2-3 (E) 4.2 19:32:36 10° NW 19:37:31 82° NE 19:42:20 19° SE
COSMOS 2428 3.2 19:33:02 10° S 19:38:11 36° ESE 19:43:21 10° NE
USA 238 DEB 4.5 19:31:57 10° NW 19:38:51 48° NNE 19:44:50 17° ESE
USA 238 4.5 19:32:07 10° NW 19:39:02 48° NE 19:45:00 17° ESE
PAYLOAD B 4.3 19:34:46 10° SSE 19:40:16 81° WSW 19:45:48 10° NNW
Cosmos 1953 4.1 19:37:11 10° SW 19:40:25 31° WNW 19:43:40 10° N
CZ-4B R/B 3.2 19:35:15 10° SSE 19:40:46 86° ENE 19:46:26 10° NNW
NOSS 2-3 (C) 4.2 19:36:10 10° NW 19:40:58 69° NE 19:45:27 20° SE
MetOp-B 4.1 19:35:48 10° SSE 19:41:11 87° ENE 19:46:35 10° NNW
CZ-4B DEB 4.5 19:36:00 10° S 19:41:26 70° WSW 19:46:55 10° NNW
Cosmos 2278 Rocket 2.8 19:39:04 10° NNW 19:44:29 43° NE 19:47:49 22° ESE
SKYMED 3 4.2 19:41:53 10° NNE 19:45:44 62° ESE 19:49:34 10° S
Cosmos 2366 rocket 4.2 19:40:20 10° SSE 19:46:12 48° E 19:52:03 10° NNE
Ariane Rocket 4.2 19:46:48 20° E 19:48:57 27° ENE 19:53:07 10° N
Cosmos 2327 Rocket 4.4 19:43:24 10° S 19:49:31 73° E 19:55:46 10° NNE
NOSS 3-2 (C) 4.2 19:42:17 10° NW 19:49:31 78° SW 19:56:23 18° SSE
Cosmos 2333 Rocket 3.9 19:44:35 10° WSW 19:49:45 35° NW 19:54:57 10° NNE
Cosmos 1703 Rocket 4.3 19:49:42 10° NNW 19:53:55 52° W 19:58:05 10° S
Geosat 4.0 19:49:21 10° NNE 19:54:21 83° NW 19:59:22 10° SW
USA 32 4.4 19:53:57 23° SE 19:56:48 43° E 20:01:43 10° NNE
BREEZE-M DEB (TANK) 2.0 19:54:24 10° W 19:56:56 87° S 19:59:32 23° E
Spot 2 Rocket 3.5 19:53:55 22° SSE 19:57:10 68° ENE 20:02:10 10° N
Lacrosse 5 rocket 0.5 19:56:31 10° SW 19:59:40 61° SE 20:00:40 37° ENE
NOSS 2-3 (D) 4.3 19:54:51 10° NW 19:59:50 79° SW 20:03:53 24° SSE
CZ-2C R/B 4.0 20:00:39 18° NE 20:00:39 18° NE 20:02:22 10° NNE
ARIANE 6 FM1 Upper Stage 3.4 19:57:01 10° WSW 20:01:03 52° NW 20:05:00 10° NE
Cosmos 1809 Rocket 4.5 19:55:01 10° N 20:01:08 65° ENE 20:05:08 23° SSE
Cosmos 1378 Rocket 4.4 19:58:22 10° N 20:02:21 32° ENE 20:03:21 29° E
ERS-1 Rocket 3.5 19:57:59 10° S 20:02:53 57° W 20:07:50 10° NNW
Cosmos 1933 Rocket 3.7 20:00:52 10° SSW 20:05:13 73° W 20:09:38 10° N
Cosmos 1943 Rocket 2.2 20:04:29 10° NNW 20:10:11 73° ENE 20:12:59 31° SE
YAOGAN 11 3.9 20:07:17 10° NNE 20:11:31 67° ESE 20:13:55 25° S
Cosmos 2218 Rocket 3.9 20:06:05 13° S 20:11:32 67° E 20:17:38 10° NNE
Meteor 1-11 4.3 20:08:49 10° N 20:14:18 55° ENE 20:16:34 33° SE
In-Cosmos 22 Rocket 4.3 20:09:54 10° NNW 20:15:15 71° W 20:19:03 19° S
Meteor 2-15 4.4 20:11:09 18° S 20:15:39 63° E 20:21:40 10° NNE
USA 59 Rocket 1.1 20:13:52 10° NNW 20:16:31 24° NE 20:17:17 22° ENE
MOS 1-B 4.3 20:14:21 23° SSE 20:18:08 84° WSW 20:23:58 10° NNW
Cosmos 1733 Rocket 3.3 20:18:21 43° ESE 20:18:59 46° E 20:23:10 10° NNE
Cosmos 192 4.5 20:18:37 34° SSE 20:20:18 49° ESE 20:25:02 10° NNE
Cosmos 1959 Rocket 4.4 20:15:53 14° S 20:21:22 75° E 20:27:43 10° NNE
SeaSat 1 3.8 20:19:54 22° E 20:21:43 28° NE 20:25:51 10° NNW
CZ-4B R/B 3.6 20:20:21 38° SE 20:21:54 56° ENE 20:26:37 10° N
NOSS 3-4 (A) 4.0 20:23:13 30° E 20:23:13 30° E 20:27:08 10° NE
Okean-O 2.7 20:20:35 31° S 20:22:38 75° WSW 20:27:02 10° NNW
NOSS 3-4 (C) 4.0 20:23:46 29° E 20:23:46 29° E 20:27:39 10° NE
IRS-1C Rocket 4.4 20:20:58 35° ESE 20:22:46 51° ENE 20:27:52 10° N
Cosmos 494 Rocket 4.4 20:18:29 10° NNW 20:23:34 58° WSW 20:26:29 25° S
ATLAS 3B R/B 4.3 20:18:26 10° W 20:25:45 42° NNW 20:33:11 10° NE
Cosmos 1821 Rocket 4.0 20:22:24 26° SSE 20:26:01 63° E 20:32:15 10° NNE
Cosmos 1048 Rocket 3.9 20:22:56 10° NNW 20:28:05 82° ENE 20:29:52 42° SSE
Cosmos 2360 Rocket 4.2 20:23:48 10° WSW 20:28:42 30° NW 20:33:39 10° NNE
Timation 2 Rocket 4.0 20:27:20 10° NNW 20:33:37 81° ENE 20:36:19 38° SE
Cosmos 1869 Rocket 4.3 20:31:00 10° SSW 20:35:15 51° WNW 20:39:34 10° N
NOSS 2-1 (C) 4.5 20:34:03 10° NNW 20:36:48 26° NE 20:36:58 26° NE
Cosmos 2322 Rocket 4.5 20:32:15 10° W 20:36:52 25° NW 20:41:29 10° NNE
Terra 3.4 20:34:16 10° SSW 20:38:19 30° W 20:42:28 10° NNW
Aureole 3 3.5 20:35:00 10° N 20:39:04 81° E 20:40:03 55° SSE
Meteor 2-21 4.4 20:33:51 10° N 20:40:00 90° E 20:42:49 35° S
CZ-4 R/B 4.2 20:38:30 10° WSW 20:40:01 12° W 20:41:30 10° WNW
NOSS 2-1 (D) 4.2 20:39:40 10° NNW 20:42:32 32° NE 20:42:32 32° NE
Cosmos 2242 Rocket 3.6 20:40:50 10° NNW 20:45:21 77° W 20:46:21 53° S
Okean O Rocket 2.6 20:43:58 26° SSW 20:45:53 42° W 20:50:03 10° NNW
SL-08 R/B 4.4 20:42:31 10° N 20:47:10 45° WNW 20:51:49 10° SW
Cosmos 1000 Rocket 4.5 20:41:09 10° N 20:47:19 63° ENE 20:49:04 45° SE
Cosmos 2237 Rocket 2.3 20:47:31 49° SE 20:48:16 53° ESE 20:53:48 10° NE
Cosmos 1980 3.7 20:47:57 48° SSE 20:49:06 57° ESE 20:54:38 10° NE
Cosmos 1025 Rocket 3.2 20:45:25 10° N 20:49:24 53° ENE 20:49:24 53° ENE
Cosmos 1125 Rocket 3.9 20:51:20 43° E 20:51:20 43° E 20:55:49 10° NE
CZ-4B R/B 2.8 20:51:35 64° W 20:51:35 64° W 20:55:05 10° NNW
ASTEX 1 3.4 20:50:47 45° S 20:52:15 76° W 20:57:11 10° N
Cosmos 2322 4.1 20:46:40 10° SW 20:52:21 65° WNW 20:58:04 10° NNE
Cosmos 2292 Rocket 3.9 20:47:36 10° N 20:53:26 66° ENE 20:54:03 59° ESE
Cosmos 1400 Rocket 3.5 21:03:02 41° NNE 21:03:02 41° NNE 21:05:29 10° NNE
IRS-P2 Rocket 4.5 21:02:29 61° SSE 21:03:26 83° ENE 21:08:43 10° NNW
SPOT 3 Rocket 3.7 21:02:10 46° SSW 21:03:36 66° WSW 21:08:47 10° NNW
Cosmos 2219 Rocket 4.3 21:00:36 10° W 21:05:15 26° NW 21:09:56 10° NNE
SL-08 R/B 4.4 21:11:04 57° SE 21:12:04 66° E 21:18:08 10° NNE
Meteor 2-21 Rocket 4.5 21:06:55 10° NNW 21:13:00 75° W 21:14:50 47° SSW
USA 234 4.0 21:10:49 10° ENE 21:17:05 50° N 21:23:21 10° W
Cosmos 2369 Rocket 3.0 21:14:54 10° NNW 21:20:05 37° NE 21:20:57 35° ENE
Cosmos 1674 Rocket 3.8 21:15:53 10° NNW 21:19:57 63° W 21:19:57 63° W
Cosmos 1908 Rocket 4.4 21:22:14 42° NE 21:22:14 42° NE 21:25:16 10° NNE
Helios 1B rocket 4.0 21:23:49 23° NNE 21:23:49 23° NNE 21:25:31 10° N
COSMOS 2428 3.7 21:16:47 10° SW 21:22:17 47° NW 21:27:50 10° NNE
NOSS 0 Rocket 4.2 21:18:58 10° SW 21:25:11 67° NW 21:31:25 10° NNE
Cosmos 1727 Rocket 4.4 21:20:10 10° NNW 21:26:24 58° W 21:28:33 39° SSW
Ariane Rocket 3.5 21:26:52 47° SW 21:27:34 51° W 21:32:28 10° NNW
Cosmos 2278 Rocket 3.1 21:23:17 10° NW 21:28:30 39° WSW 21:29:39 35° SW
USA 238 DEB 4.1 21:22:54 10° NW 21:30:12 64° SW 21:32:16 49° S
USA 238 4.1 21:23:04 10° NW 21:30:23 64° SW 21:32:26 49° S
Cosmos 2221 Rocket 3.9 21:26:25 10° N 21:30:11 64° NNW 21:30:11 64° NNW
Cosmos 1346 Rocket 4.1 21:29:15 10° NNW 21:31:34 35° NW 21:31:34 35° NW
Lacrosse 5 rocket 3.7 21:33:36 10° W 21:34:04 13° WNW 21:34:04 13° WNW
DNEPR-1 R/B 4.4 21:45:57 46° N 21:45:57 46° N 21:49:26 10° NE
Cosmos 1656 Rocket 3.6 21:45:04 10° NNW 21:50:17 77° W 21:50:17 77° W
Cosmos 1943 Rocket 3.9 21:49:10 10° NW 21:53:19 21° W 21:54:29 20° WSW
SL-16 R/B 3.1 21:58:05 38° ENE 21:58:05 38° ENE 22:01:47 10° NE
SJ 16-02 3.9 21:55:12 10° NNE 21:56:33 11° NE 21:56:47 11° NE
SeaSat 1 2.9 21:59:30 55° WNW 21:59:30 55° WNW 22:03:40 10° NW
Cosmos 2123 Rocket 4.3 21:56:53 10° NNW 22:02:57 55° W 22:03:50 51° WSW
Cosmos 1934 Rocket 4.1 22:03:44 61° SW 22:04:39 69° WNW 22:10:55 10° N
USA 59 Rocket 2.1 22:01:53 10° NW 22:02:49 18° WNW 22:02:49 18° WNW
Cosmos 1447 Rocket 4.5 22:00:15 10° N 22:06:34 68° ENE 22:06:34 68° ENE
Cosmos 1140 Rocket 4.2 22:04:21 10° NNW 22:08:44 46° NE 22:08:44 46° NE
Cosmos 2346 Rocket 4.3 22:03:56 10° N 22:09:59 80° ENE 22:09:59 80° ENE
NOSS 3-4 (A) 3.7 22:10:28 34° W 22:12:37 56° NW 22:18:32 10° NE
NOSS 3-4 (C) 3.7 22:11:02 35° W 22:13:07 57° NW 22:19:04 10° NE
Cosmos 2285 Rocket 3.9 22:19:16 84° ENE 22:19:16 84° ENE 22:25:29 10° NNE
Cosmos 967 Rocket 4.5 22:20:12 10° NW 22:26:42 76° NE 22:26:46 76° ENE
Cosmos 1535 Rocket 4.4 22:26:51 74° WNW 22:26:51 74° WNW 22:32:59 10° N
NOSS 3-1 (C) 3.9 22:20:32 10° NW 22:27:20 75° NE 22:28:43 62° ESE
ALOS 2 4.0 22:29:40 35° N 22:29:40 35° N 22:32:23 10° N
RESURS DK-1 4.5 22:30:06 24° N 22:30:06 24° N 22:31:57 10° NNE
ATLAS 5 CENTAUR R/B 3.9 22:26:25 10° NNW 22:28:46 16° NNE 22:29:34 15° NE
Cosmos 2237 Rocket 3.7 22:29:12 19° W 22:32:34 34° NW 22:37:44 10° NNE
Cosmos 1605 Rocket 4.0 22:32:45 72° WNW 22:32:45 72° WNW 22:38:47 10° N
ARIANE 5 R/B 4.1 22:40:11 34° NNW 22:40:11 34° NNW 22:42:42 10° NNW
Cosmos 2297 4.0 22:32:37 10° NNW 22:37:29 63° NW 22:37:29 63° NW
COSMOS 2455 3.6 22:38:51 10° NNW 22:44:37 44° NE 22:45:16 43° ENE
Cosmos 2173 Rocket 4.3 22:55:45 58° NE 22:55:45 58° NE 23:00:55 10° NNE
CZ-2C R/B 4.5 22:53:01 10° NNE 22:55:50 28° NE 22:55:50 28° NE
USA 234 4.0 22:53:14 10° E 22:59:31 51° N 23:05:48 10° WNW
Cosmos 2100 Rocket 4.2 23:00:25 64° NE 23:00:25 64° NE 23:05:47 10° NNE
Cosmos 2369 Rocket 3.2 22:58:53 10° NW 23:02:43 37° WNW 23:02:43 37° WNW
NOSS 3-1 (A) 4.0 23:11:37 10° NW 23:18:28 74° NE 23:19:58 60° ESE
Cosmos 1943 3.7 23:21:35 54° NE 23:21:35 54° NE 23:25:55 10° NNE
SJ 16-02 3.2 23:31:14 10° NNW 23:33:17 27° N 23:33:17 27° N
ACS3 Solar Sail 3.2 23:35:39 10° NE 23:40:25 25° E 23:40:25 25° E
SL-16 R/B 3.4 23:39:53 33° WNW 23:40:37 34° NW 23:45:47 10° NNE
Cosmos 1802 Rocket 4.1 23:43:35 76° NNW 23:43:35 76° NNW 23:49:28 10° N
CZ-2C R/B 3.1 23:44:18 59° NNW 23:44:18 59° NNW 23:48:45 10° NNW
Meteor 2-3 Rocket 4.4 23:41:36 10° NNW 23:45:50 47° NW 23:45:50 47° NW
Cosmos 1725 Rocket 4.0 23:48:08 76° NNW 23:48:08 76° NNW 23:54:01 10° N
Cosmos 1818 4.4 23:46:02 10° NNW 23:51:18 46° NE 23:51:37 45° NE
